When you browse on this site, cookies collect data to enhance your experience and personalize the content and advertising you see.
Visit our Privacy Policy to learn more. By continuing to use the site, you agree to this use of cookies and data.
  • In Latvia
  • List of Countries
  • For 7 days
  • Water Temperature
  • Satellite Maps
  • Weather Map
  • Weather Widgets
  • user-avatar
    Login

    Hourly Weather Klagenfurt

    Today, 22 March, Friday

    Time Temperature Precipitation Wind Pressure Humidity
    00:00 +1°C° 0 mm 1 mps 699 mmHg 73%
    01:00 +1°C° 0 mm 1 mps 699 mmHg 68%
    02:00 +1°C° 0 mm 1 mps 698 mmHg 67%
    03:00 +1°C° 0 mm 1 mps 698 mmHg 66%
    04:00 +1°C° 0 mm 1 mps 698 mmHg 65%
    05:00 +2°C° 0 mm 1 mps 698 mmHg 63%
    06:00 +2°C° 0 mm 1 mps 698 mmHg 60%
    07:00 +3°C° 0 mm 1 mps 698 mmHg 58%
    08:00 +5°C° 0 mm 1 mps 699 mmHg 51%
    09:00 +8°C° 0 mm 1 mps 699 mmHg 44%
    10:00 +11°C° 0 mm 1 mps 699 mmHg 37%
    11:00 +12°C° 0 mm 1 mps 699 mmHg 36%
    12:00 +14°C° 0 mm 1 mps 699 mmHg 35%
    13:00 +15°C° 0 mm 1 mps 699 mmHg 33%
    14:00 +15°C° 0 mm 1 mps 699 mmHg 36%
    15:00 +14°C° 0 mm 1 mps 698 mmHg 39%
    16:00 +14°C° 0 mm 1 mps 698 mmHg 41%
    17:00 +11°C° 0 mm 1 mps 698 mmHg 49%
    18:00 +9°C° 0 mm 1 mps 697 mmHg 58%
    19:00 +5°C° 0 mm 0 mps 697 mmHg 66%
    20:00 +5°C° 0 mm 0 mps 697 mmHg 67%
    21:00 +4°C° 0 mm 0 mps 697 mmHg 69%
    22:00 +4°C° 0 mm 0 mps 697 mmHg 71%
    23:00 +3°C° 0 mm 0 mps 697 mmHg 72%

    Tomorrow, 23 March, Saturday

    Time Temperature Precipitation Wind Pressure Humidity
    00:00 +4°C° 0 mm 1 mps 697 mmHg 73%
    01:00 +4°C° 0 mm 1 mps 697 mmHg 73%
    02:00 +4°C° 0 mm 1 mps 696 mmHg 74%
    03:00 +3°C° 0 mm 1 mps 696 mmHg 74%
    04:00 +3°C° 0 mm 1 mps 696 mmHg 74%
    05:00 +4°C° 0 mm 1 mps 696 mmHg 73%
    06:00 +4°C° 0 mm 1 mps 696 mmHg 72%
    07:00 +4°C° 0 mm 1 mps 696 mmHg 71%
    08:00 +7°C° 0 mm 1 mps 697 mmHg 64%
    09:00 +10°C° 0 mm 1 mps 697 mmHg 57%
    10:00 +13°C° 0 mm 1 mps 697 mmHg 50%
    11:00 +15°C° 0 mm 1 mps 697 mmHg 48%
    12:00 +16°C° 0 mm 1 mps 697 mmHg 46%
    13:00 +18°C° 0 mm 1 mps 697 mmHg 44%
    14:00 +18°C° 0 mm 1 mps 697 mmHg 45%
    15:00 +16°C° 0 mm 1 mps 696 mmHg 46%
    16:00 +16°C° 0 mm 1 mps 696 mmHg 47%
    17:00 +14°C° 0 mm 1 mps 696 mmHg 57%
    18:00 +11°C° 0 mm 1 mps 695 mmHg 66%
    19:00 +8°C° 0 mm 0 mps 695 mmHg 75%
    20:00 +7°C° 0 mm 0 mps 695 mmHg 77%
    21:00 +7°C° 0 mm 0 mps 695 mmHg 78%
    22:00 +6°C° 0 mm 0 mps 696 mmHg 80%
    23:00 +6°C° 0 mm 0 mps 695 mmHg 81%

    Day after tomorrow, 24 March, Sunday

    Time Temperature Precipitation Wind Pressure Humidity
    00:00 +6°C° 0 mm 1 mps 695 mmHg 82%
    01:00 +6°C° 0 mm 1 mps 695 mmHg 83%
    02:00 +6°C° 0 mm 1 mps 695 mmHg 83%
    03:00 +6°C° 0 mm 1 mps 694 mmHg 84%
    04:00 +5°C° 0 mm 1 mps 694 mmHg 84%
    05:00 +6°C° 0 mm 1 mps 694 mmHg 83%
    06:00 +6°C° 0 mm 1 mps 694 mmHg 82%
    07:00 +6°C° 0 mm 1 mps 694 mmHg 81%
    08:00 +9°C° 0 mm 1 mps 694 mmHg 72%
    09:00 +11°C° 0 mm 0 mps 695 mmHg 62%
    10:00 +14°C° 0 mm 0 mps 695 mmHg 53%
    11:00 +15°C° 0 mm 0 mps 695 mmHg 49%
    12:00 +19°C° 0 mm 1 mps 695 mmHg 46%
    13:00 +20°C° 0 mm 1 mps 695 mmHg 42%
    14:00 +19°C° 0 mm 1 mps 694 mmHg 43%
    15:00 +19°C° 0 mm 1 mps 694 mmHg 43%
    16:00 +18°C° 0 mm 1 mps 693 mmHg 44%
    17:00 +14°C° 0 mm 0 mps 693 mmHg 51%
    18:00 +12°C° 0 mm 0 mps 693 mmHg 59%
    19:00 +10°C° 0 mm 0 mps 693 mmHg 66%
    20:00 +9°C° 0 mm 0 mps 693 mmHg 69%
    21:00 +10°C° 0 mm 1 mps 693 mmHg 72%
    22:00 +9°C° 0 mm 1 mps 693 mmHg 74%
    23:00 +9°C° 0.2 mm 1 mps 693 mmHg 77%

    25 March, Monday

    Time Temperature Precipitation Wind Pressure Humidity
    00:00 +9°C° 0.2 mm 1 mps 693 mmHg 79%
    01:00 +9°C° 0.2 mm 1 mps 693 mmHg 81%
    02:00 +8°C° 0.4 mm 1 mps 693 mmHg 84%
    03:00 +7°C° 0.4 mm 0 mps 693 mmHg 86%
    04:00 +7°C° 0.4 mm 0 mps 693 mmHg 89%
    05:00 +7°C° 0.4 mm 0 mps 693 mmHg 89%
    06:00 +7°C° 0.4 mm 0 mps 693 mmHg 89%
    07:00 +6°C° 0.4 mm 0 mps 693 mmHg 90%
    08:00 +8°C° 0.3 mm 1 mps 694 mmHg 86%
    09:00 +9°C° 0.3 mm 1 mps 694 mmHg 82%
    10:00 +10°C° 0.3 mm 1 mps 695 mmHg 77%
    11:00 +10°C° 0.2 mm 1 mps 694 mmHg 79%
    12:00 +9°C° 0.2 mm 1 mps 694 mmHg 80%
    13:00 +8°C° 0.2 mm 2 mps 693 mmHg 81%
    14:00 +9°C° 0.1 mm 1 mps 693 mmHg 81%
    15:00 +8°C° 0.1 mm 1 mps 692 mmHg 81%
    16:00 +8°C° 0.1 mm 1 mps 692 mmHg 81%
    17:00 +7°C° 0.2 mm 1 mps 692 mmHg 83%
    18:00 +7°C° 0.2 mm 1 mps 692 mmHg 86%
    19:00 +6°C° 0.2 mm 1 mps 692 mmHg 88%
    20:00 +5°C° 0 mm 1 mps 692 mmHg 86%
    21:00 +5°C° 0 mm 1 mps 693 mmHg 84%
    22:00 +4°C° 0 mm 1 mps 693 mmHg 82%
    23:00 +3°C° 0 mm 2 mps 693 mmHg 79%

    26 March, Tuesday

    Time Temperature Precipitation Wind Pressure Humidity
    00:00 +3°C° 0 mm 2 mps 694 mmHg 76%
    01:00 +2°C° 0 mm 2 mps 694 mmHg 72%
    02:00 +2°C° 0 mm 2 mps 694 mmHg 73%
    03:00 +1°C° 0 mm 2 mps 694 mmHg 73%
    04:00 -1°C° 0 mm 2 mps 694 mmHg 74%
    05:00 -1°C° 0 mm 2 mps 695 mmHg 70%
    06:00 -1°C° 0 mm 2 mps 695 mmHg 66%
    07:00 -1°C° 0 mm 2 mps 696 mmHg 62%
    08:00 0°C° 0 mm 3 mps 696 mmHg 55%
    09:00 +1°C° 0 mm 5 mps 697 mmHg 47%
    10:00 +2°C° 0 mm 6 mps 698 mmHg 39%
    11:00 +3°C° 0 mm 6 mps 698 mmHg 35%
    12:00 +5°C° 0 mm 5 mps 698 mmHg 30%
    13:00 +6°C° 0 mm 4 mps 698 mmHg 26%
    14:00 +5°C° 0 mm 4 mps 698 mmHg 27%
    15:00 +5°C° 0 mm 4 mps 698 mmHg 28%
    16:00 +5°C° 0 mm 4 mps 698 mmHg 29%
    17:00 +3°C° 0 mm 3 mps 698 mmHg 38%
    18:00 +2°C° 0 mm 2 mps 698 mmHg 46%
    19:00 +1°C° 0 mm 2 mps 698 mmHg 54%
    20:00 -1°C° 0 mm 2 mps 699 mmHg 57%
    21:00 -2°C° 0 mm 2 mps 699 mmHg 61%
    22:00 0°C° 0 mm 1 mps 700 mmHg 65%
    23:00 -1°C° 0 mm 1 mps 700 mmHg 65%

    27 March, Wednesday

    Time Temperature Precipitation Wind Pressure Humidity
    00:00 -1°C° 0 mm 1 mps 700 mmHg 66%
    01:00 -1°C° 0 mm 1 mps 700 mmHg 67%
    02:00 -1°C° 0 mm 1 mps 700 mmHg 66%
    03:00 -1°C° 0 mm 1 mps 700 mmHg 65%
    04:00 -1°C° 0 mm 1 mps 699 mmHg 63%
    05:00 -1°C° 0 mm 1 mps 700 mmHg 60%
    06:00 0°C° 0 mm 1 mps 700 mmHg 56%
    07:00 +1°C° 0 mm 1 mps 700 mmHg 52%
    08:00 +3°C° 0 mm 1 mps 700 mmHg 42%
    09:00 +6°C° 0 mm 1 mps 701 mmHg 33%
    10:00 +9°C° 0 mm 1 mps 701 mmHg 23%
    11:00 +10°C° 0 mm 1 mps 701 mmHg 22%
    12:00 +11°C° 0 mm 1 mps 701 mmHg 21%
    13:00 +12°C° 0 mm 1 mps 700 mmHg 20%
    14:00 +12°C° 0 mm 1 mps 700 mmHg 21%
    15:00 +11°C° 0 mm 1 mps 700 mmHg 23%
    16:00 +11°C° 0 mm 1 mps 699 mmHg 24%
    17:00 +8°C° 0 mm 1 mps 699 mmHg 32%
    18:00 +6°C° 0 mm 1 mps 699 mmHg 41%
    19:00 +3°C° 0 mm 1 mps 699 mmHg 49%
    20:00 +3°C° 0 mm 1 mps 699 mmHg 51%
    21:00 +3°C° 0 mm 1 mps 699 mmHg 53%
    22:00 +2°C° 0 mm 1 mps 700 mmHg 55%
    23:00 +2°C° 0 mm 1 mps 700 mmHg 57%
    Show more